Regional Weather Roundup
Issued by NWS Raleigh/Durham, NC

Home | Current Version | Previous Version | Text Only | Print | Product List | Glossary On
Versions: 1 2 3 4 5 6 7 8 9 10 11 12 13 14 15 16 17 18 19 20 21 22 23 24 25 26 27 28 29 30 31 32 33 34 35 36 37 38 39 40 41 42 43 44 45 46 47 48 49 50
000
ASUS42 KRAH 020610
RWRRAH
NORTH CAROLINA WEATHER ROUNDUP
NATIONAL WEATHER SERVICE RALEIGH NC
200 AM EDT WED SEP 02 2015

NOTE: "FAIR" INDICATES FEW OR NO CLOUDS BELOW 12,000 FEET WITH NO
SIGNIFICANT WEATHER AND/OR OBSTRUCTIONS TO VISIBILITY.

NCZ001-053-055-056-065-067-020700-
WESTERN NORTH CAROLINA

CITY           SKY/WX    TMP DP  RH WIND       PRES   REMARKS
ASHEVILLE      FAIR      68  65  90 CALM      30.20S
JEFFERSON      FAIR      67  63  87 CALM      30.24F
MORGANTON      FAIR      69  68  97 CALM      30.17S
HICKORY        FAIR      73  67  81 W5        30.12S
RUTHERFORDTON  FAIR      69  69 100 CALM      30.13S
MOUNT AIRY     MOCLDY    73  69  88 CALM      30.15S
BOONE          FAIR      61  61 100 CALM      30.25S FOG
$$

NCZ021-022-025-041-071-084-088-020700-
CENTRAL NORTH CAROLINA

CITY           SKY/WX    TMP DP  RH WIND       PRES   REMARKS
CHARLOTTE      FAIR      75  67  76 CALM      30.10F
GREENSBORO     MOCLDY    74  65  73 CALM      30.10F
WINSTON-SALEM  FAIR      73  66  78 CALM      30.12F
RALEIGH-DURHAM FAIR      70  68  93 CALM      30.08F
FORT BRAGG     FAIR      74  70  87 S3        30.06F
FAYETTEVILLE   FAIR      74  72  93 SW6       30.06F
BURLINGTON     FAIR      69  69 100 CALM      30.09F
LAURINBURG     FAIR      72  69  90 CALM      30.08F
$$

NCZ011-015-027-028-043-044-047-080-103-020700-
NORTHEASTERN NORTH CAROLINA

CITY           SKY/WX    TMP DP  RH WIND       PRES   REMARKS
ROCKY MT-WILSO FAIR      70  69  97 CALM      30.07F FOG
GREENVILLE     FAIR      70  70 100 CALM      30.08F FOG
WASHINGTON     FAIR      70  70  98 CALM      30.07S
ELIZABETH CITY FAIR      71  70  96 SW5       30.05F FOG
MANTEO         FAIR      72  72  98 CALM      30.05F
CAPE HATTERAS  FAIR      73  72  96 W5        30.05F
$$

NCZ078-087-090-091-093-098-101-020700-
SOUTHEASTERN NORTH CAROLINA

CITY           SKY/WX    TMP DP  RH WIND       PRES   REMARKS
LUMBERTON      FAIR      75  72  90 CALM      30.06F
GOLDSBORO      FAIR      72  71  96 CALM      30.05F
KINSTON        FAIR      72  71  98 CALM      30.07F
KENANSVILLE      N/A     71  70  97 CALM      30.08S FOG
NEW BERN       FAIR      74  72  93 SW3       30.07F
CHERRY POINT   FAIR      74  73  97 CALM      30.08S
BEAUFORT       FAIR      77  76  96 W3        30.07S
JACKSONVILLE   FAIR      74  72  93 W3        30.06F
WILMINGTON     FAIR      75  73  93 CALM      30.07F
$$



USA.gov is the U.S. government's official web portal to all federal, state and local government web resources and services.